When you browse on this site, cookies collect data to enhance your experience and personalize the content and advertising you see.
Visit our Privacy Policy to learn more. By continuing to use the site, you agree to this use of cookies and data.
  • In United Kingdom
  • List of Countries
  • For 7 days
  • Water Temperature
  • Weather Map
  • Weather Widgets
  • user-avatar
    Login

    Hourly Weather Nicastro

    Today, 12 November, Tuesday

    Time Temperature Precipitation Wind Pressure Humidity
    00:00 +15°C° 3.8 mm 7 mps 718 mmHg 93%
    01:00 +16°C° 3.8 mm 7 mps 717 mmHg 93%
    02:00 +16°C° 1.6 mm 7 mps 716 mmHg 93%
    03:00 +16°C° 1.6 mm 6 mps 716 mmHg 93%
    04:00 +17°C° 1.6 mm 6 mps 715 mmHg 93%
    05:00 +17°C° 2.3 mm 5 mps 715 mmHg 93%
    06:00 +16°C° 2.3 mm 5 mps 715 mmHg 94%
    07:00 +16°C° 2.3 mm 5 mps 715 mmHg 94%
    08:00 +15°C° 0.8 mm 6 mps 715 mmHg 92%
    09:00 +14°C° 0.8 mm 7 mps 715 mmHg 91%
    10:00 +12°C° 0.8 mm 9 mps 716 mmHg 90%
    11:00 +12°C° 0.6 mm 9 mps 716 mmHg 85%
    12:00 +12°C° 0.6 mm 9 mps 716 mmHg 80%
    13:00 +12°C° 0.6 mm 9 mps 717 mmHg 75%
    14:00 +12°C° 0.1 mm 8 mps 716 mmHg 76%
    15:00 +12°C° 0.1 mm 8 mps 716 mmHg 77%
    16:00 +12°C° 0.1 mm 7 mps 716 mmHg 79%
    17:00 +11°C° 0.5 mm 7 mps 716 mmHg 81%
    18:00 +11°C° 0.5 mm 8 mps 716 mmHg 83%
    19:00 +11°C° 0.5 mm 8 mps 716 mmHg 85%
    20:00 +11°C° 0.6 mm 8 mps 716 mmHg 84%
    21:00 +11°C° 0.6 mm 9 mps 715 mmHg 84%
    22:00 +11°C° 0.6 mm 9 mps 715 mmHg 84%
    23:00 +11°C° 0.6 mm 9 mps 714 mmHg 85%

    Tomorrow, 13 November, Wednesday

    Time Temperature Precipitation Wind Pressure Humidity
    00:00 +11°C° 0.6 mm 8 mps 714 mmHg 87%
    01:00 +11°C° 0.6 mm 8 mps 713 mmHg 88%
    02:00 +11°C° 1 mm 7 mps 713 mmHg 88%
    03:00 +11°C° 1 mm 7 mps 713 mmHg 88%
    04:00 +11°C° 1 mm 6 mps 713 mmHg 88%
    05:00 +13°C° 0.2 mm 6 mps 714 mmHg 89%
    06:00 +13°C° 0.2 mm 5 mps 715 mmHg 89%
    07:00 +13°C° 0.2 mm 5 mps 716 mmHg 89%
    08:00 +13°C° 0.6 mm 5 mps 716 mmHg 88%
    09:00 +14°C° 0.6 mm 6 mps 717 mmHg 87%
    10:00 +14°C° 0.6 mm 6 mps 718 mmHg 86%
    11:00 +14°C° 0.5 mm 6 mps 718 mmHg 85%
    12:00 +14°C° 0.5 mm 6 mps 718 mmHg 83%
    13:00 +15°C° 0.5 mm 6 mps 719 mmHg 82%
    14:00 +14°C° 0.6 mm 5 mps 719 mmHg 84%
    15:00 +14°C° 0.6 mm 5 mps 719 mmHg 86%
    16:00 +13°C° 0.6 mm 4 mps 719 mmHg 88%
    17:00 +13°C° 0.6 mm 4 mps 720 mmHg 88%
    18:00 +13°C° 0.6 mm 4 mps 720 mmHg 88%
    19:00 +12°C° 0.6 mm 4 mps 721 mmHg 89%
    20:00 +12°C° 0.1 mm 4 mps 721 mmHg 87%
    21:00 +12°C° 0.1 mm 4 mps 721 mmHg 86%
    22:00 +11°C° 0.1 mm 4 mps 722 mmHg 84%
    23:00 +11°C° 0 mm 3 mps 722 mmHg 84%

    Day after tomorrow, 14 November, Thursday

    Time Temperature Precipitation Wind Pressure Humidity
    00:00 +10°C° 0 mm 2 mps 722 mmHg 83%
    01:00 +10°C° 0 mm 2 mps 722 mmHg 82%
    02:00 +10°C° 0 mm 2 mps 722 mmHg 81%
    03:00 +10°C° 0 mm 2 mps 721 mmHg 81%
    04:00 +10°C° 0 mm 2 mps 721 mmHg 80%
    05:00 +10°C° 0 mm 2 mps 721 mmHg 80%
    06:00 +10°C° 0 mm 2 mps 721 mmHg 80%
    07:00 +12°C° 0 mm 2 mps 721 mmHg 79%
    08:00 +13°C° 0 mm 2 mps 722 mmHg 72%
    09:00 +15°C° 0 mm 1 mps 722 mmHg 65%
    10:00 +16°C° 0 mm 1 mps 722 mmHg 58%
    11:00 +18°C° 0 mm 1 mps 722 mmHg 58%
    12:00 +18°C° 0 mm 1 mps 722 mmHg 59%
    13:00 +18°C° 0 mm 1 mps 722 mmHg 59%
    14:00 +16°C° 0 mm 1 mps 722 mmHg 62%
    15:00 +16°C° 0 mm 2 mps 722 mmHg 65%
    16:00 +15°C° 0 mm 2 mps 722 mmHg 68%
    17:00 +14°C° 0.1 mm 2 mps 722 mmHg 73%
    18:00 +13°C° 0.1 mm 2 mps 722 mmHg 78%
    19:00 +12°C° 0.1 mm 2 mps 722 mmHg 83%
    20:00 +12°C° 0 mm 2 mps 723 mmHg 85%
    21:00 +13°C° 0 mm 2 mps 723 mmHg 87%
    22:00 +13°C° 0 mm 2 mps 723 mmHg 89%
    23:00 +13°C° 0 mm 2 mps 724 mmHg 88%

    15 November, Friday

    Time Temperature Precipitation Wind Pressure Humidity
    00:00 +13°C° 0 mm 1 mps 724 mmHg 88%
    01:00 +12°C° 0 mm 1 mps 724 mmHg 87%
    02:00 +12°C° 0 mm 1 mps 724 mmHg 83%
    03:00 +12°C° 0 mm 1 mps 724 mmHg 78%
    04:00 +11°C° 0 mm 1 mps 724 mmHg 74%
    05:00 +10°C° 0 mm 2 mps 724 mmHg 73%
    06:00 +10°C° 0 mm 2 mps 724 mmHg 73%
    07:00 +10°C° 0 mm 2 mps 724 mmHg 72%
    08:00 +13°C° 0 mm 2 mps 725 mmHg 67%
    09:00 +15°C° 0 mm 2 mps 725 mmHg 61%
    10:00 +18°C° 0 mm 1 mps 725 mmHg 56%
    11:00 +19°C° 0 mm 1 mps 725 mmHg 54%
    12:00 +19°C° 0 mm 2 mps 725 mmHg 52%
    13:00 +19°C° 0 mm 2 mps 725 mmHg 50%
    14:00 +18°C° 0 mm 2 mps 725 mmHg 57%
    15:00 +18°C° 0 mm 2 mps 725 mmHg 63%
    16:00 +17°C° 0 mm 2 mps 725 mmHg 70%
    17:00 +16°C° 0 mm 2 mps 725 mmHg 76%
    18:00 +14°C° 0 mm 3 mps 725 mmHg 81%
    19:00 +13°C° 0 mm 3 mps 725 mmHg 87%
    20:00 +13°C° 0 mm 3 mps 726 mmHg 86%
    21:00 +13°C° 0 mm 3 mps 726 mmHg 84%
    22:00 +13°C° 0 mm 3 mps 726 mmHg 83%
    23:00 +13°C° 0 mm 3 mps 726 mmHg 84%

    16 November, Saturday

    Time Temperature Precipitation Wind Pressure Humidity
    00:00 +13°C° 0 mm 3 mps 726 mmHg 86%
    01:00 +13°C° 0 mm 3 mps 726 mmHg 88%
    02:00 +13°C° 0 mm 3 mps 726 mmHg 88%
    03:00 +13°C° 0 mm 3 mps 726 mmHg 88%
    04:00 +13°C° 0 mm 4 mps 726 mmHg 88%
    05:00 +13°C° 0 mm 4 mps 726 mmHg 89%
    06:00 +14°C° 0 mm 4 mps 725 mmHg 89%
    07:00 +14°C° 0 mm 4 mps 725 mmHg 90%
    08:00 +15°C° 0.1 mm 5 mps 725 mmHg 84%
    09:00 +16°C° 0.1 mm 5 mps 726 mmHg 79%
    10:00 +17°C° 0.1 mm 6 mps 726 mmHg 73%
    11:00 +17°C° 0.1 mm 6 mps 726 mmHg 72%
    12:00 +19°C° 0.1 mm 6 mps 725 mmHg 70%
    13:00 +18°C° 0.1 mm 7 mps 725 mmHg 68%
    14:00 +17°C° 0.1 mm 6 mps 725 mmHg 72%
    15:00 +17°C° 0.1 mm 6 mps 724 mmHg 76%
    16:00 +16°C° 0.1 mm 6 mps 724 mmHg 79%
    17:00 +15°C° 0.1 mm 6 mps 724 mmHg 82%
    18:00 +15°C° 0.1 mm 6 mps 724 mmHg 84%
    19:00 +15°C° 0.1 mm 6 mps 723 mmHg 87%
    20:00 +15°C° 0.1 mm 6 mps 723 mmHg 87%
    21:00 +15°C° 0.1 mm 7 mps 723 mmHg 88%
    22:00 +15°C° 0.1 mm 7 mps 723 mmHg 88%
    23:00 +15°C° 0.1 mm 6 mps 723 mmHg 89%

    17 November, Sunday

    Time Temperature Precipitation Wind Pressure Humidity
    00:00 +15°C° 0.1 mm 6 mps 723 mmHg 89%
    01:00 +15°C° 0.1 mm 6 mps 723 mmHg 90%
    02:00 +15°C° 0.1 mm 6 mps 723 mmHg 90%
    03:00 +15°C° 0.1 mm 6 mps 722 mmHg 90%
    04:00 +15°C° 0.1 mm 6 mps 722 mmHg 90%
    05:00 +15°C° 0.2 mm 5 mps 722 mmHg 91%
    06:00 +15°C° 0.2 mm 5 mps 722 mmHg 91%
    07:00 +15°C° 0.2 mm 5 mps 722 mmHg 91%
    08:00 +14°C° 1.9 mm 5 mps 723 mmHg 92%
    09:00 +14°C° 1.9 mm 5 mps 723 mmHg 93%
    10:00 +14°C° 1.9 mm 5 mps 723 mmHg 94%
    11:00 +13°C° 1 mm 5 mps 723 mmHg 92%
    12:00 +13°C° 1 mm 4 mps 724 mmHg 91%
    13:00 +12°C° 1 mm 4 mps 724 mmHg 89%
    14:00 +12°C° 0.4 mm 4 mps 724 mmHg 87%
    15:00 +11°C° 0.4 mm 4 mps 724 mmHg 84%
    16:00 +10°C° 0.4 mm 5 mps 725 mmHg 82%
    17:00 +11°C° 0.1 mm 4 mps 725 mmHg 83%
    18:00 +10°C° 0.1 mm 4 mps 726 mmHg 84%
    19:00 +10°C° 0.1 mm 4 mps 726 mmHg 85%
    20:00 +10°C° 0 mm 4 mps 727 mmHg 85%
    21:00 +10°C° 0 mm 4 mps 727 mmHg 85%
    22:00 +10°C° 0 mm 4 mps 728 mmHg 85%
    23:00 +10°C° 0 mm 4 mps 728 mmHg 85%
    Show more